Regional Weather Roundup
Issued by NWS

Home | Current Version | Previous Version | Graphics & Text | Print | Product List | Glossary Off
Versions: 1 2 3 4 5 6 7 8 9 10 11 12 13 14 15 16 17 18 19 20 21 22 23 24 25 26 27 28 29 30 31 32 33 34 35 36 37 38 39 40 41 42 43 44 45 46 47 48 49 50

000
ASUS43 KMKX 070921
RWRWI

WISCONSIN REGIONAL WEATHER ROUNDUP
NATIONAL WEATHER SERVICE MILWAUKEE/SULLIVAN WI
400 AM CDT THU MAY 07 2015

NOTE: "FAIR" INDICATES FEW OR NO CLOUDS BELOW 12,000 FEET WITH NO
SIGNIFICANT WEATHER AND/OR OBSTRUCTIONS TO VISIBILITY.

WIZ001-002-006>008-014>016-023>028-071000-
NORTHWEST WISCONSIN

CITY           SKY/WX    TMP DP  RH WIND       PRES   REMARKS
SUPERIOR ARPT  PTCLDY    39  38  96 CALM      29.88F
ASHLAND        MOCLDY    60  58  92 S6        29.90F
HAYWARD        PTCLDY    62  57  83 S9        29.89F
SIREN          MOCLDY    62  57  84 SE8       29.85F
CUMBERLAND     LGT RAIN  59  55  88 SE8       29.87F
RICE LAKE      CLOUDY    61  57  86 SE9       29.89F
CHETEK         CLOUDY    62  59  92 E10       29.88F
LADYSMITH      CLOUDY    62  59  91 SE8       29.94F
EAU CLAIRE     MOCLDY    63  59  87 SE7       29.88F
MENOMONIE      MOCLDY    62  59  91 E8        29.88F
NEW RICHMOND   MOCLDY    62  56  82 SE8       29.83F
OSCEOLA        MOCLDY    62  61  97 SE8       29.84F
$$

WIZ003>005-009-010-017-018-071000-
NORTH CENTRAL WISCONSIN

CITY           SKY/WX    TMP DP  RH WIND       PRES   REMARKS
MANITOWISH WTR MOCLDY    58  57  95 SE6       29.97F
ARBOR VITAE    MOCLDY    59  56  88 SE7       29.98F
WOODRUFF       MOCLDY    59  56  88 SE7       29.98F
RHINELANDER    MOCLDY    58  54  86 SE7       30.01F
EAGLE RIVER    MOCLDY    57  52  82 SE7       30.00F
LAND O LAKES   PTCLDY    57  54  89 SE6       30.01F
PHILLIPS       MOCLDY    59  57  93 SE7       29.96S
TOMAHAWK       MOCLDY    57  54  89 SE5       30.00S FOG
MEDFORD        CLOUDY    59  56  91 SE8       29.96F FOG
MERRILL        MOCLDY    57  56  95 SE7       30.00S FOG
$$

WIZ029-030-035-036-043>047-071000-
CENTRAL WISCONSIN

CITY           SKY/WX    TMP DP  RH WIND       PRES   REMARKS
WAUSAU         MOCLDY    58  55  90 SE7       29.99S FOG
MOSINEE        MOCLDY    57  55  94 SE6       30.01S FOG
MARSHFIELD     CLOUDY    61  56  83 SE8       29.96F HAZE
STEVENS POINT  MOCLDY    57  54  88 SE5       30.01S FOG
WAUPACA        PTCLDY    56  55  94 E3        30.02S FOG
WAUTOMA        FOG       54  54 100 CALM      30.01S VSB 3/4
WISC RAPIDS    CLOUDY    61  55  81 SE7       29.99F
CAMP DOUGLAS   CLOUDY    62  62 100 SE8       29.95F
$$

WIZ011>013-019>022-031-037>040-048>050-071000-
NORTHEAST WISCONSIN

CITY           SKY/WX    TMP DP  RH WIND       PRES   REMARKS
ANTIGO         PTCLDY    53  52  98 SE8       30.02F FOG
SHAWANO        MOCLDY    52  50  90 E3        30.04F FOG
OCONTO         CLEAR     45  44  99 CALM      30.04F
STURGEON BAY   PTCLDY    57  54  88 S14       30.06F
GREEN BAY      CLEAR     50  48  93 CALM      30.03F FOG
MANITOWOC        N/A    N/A N/A N/A MISG        N/A
APPLETON       CLEAR     52  50  93 CALM      30.02F FOG
CLINTONVILLE   MOCLDY    52  50  93 NE3       30.03S FOG
OSHKOSH        CLEAR     56  52  86 S6        30.01F FOG
$$

WIZ032>034-041-042-053>061-071000-
SOUTHWEST WISCONSIN

CITY           SKY/WX    TMP DP  RH WIND       PRES   REMARKS
LA CROSSE      MOCLDY    68  57  68 S10       29.89F
SPARTA         CLOUDY    66  56  70 SE8       29.93F
VIROQUA        MOCLDY    64  57  78 SE12      29.94S
BOSCOBEL       PTCLDY    69  56  62 VRB5      29.94F
PRAIRIE DU CHI PTCLDY    67  55  67 SE8       29.92F
PLATTEVILLE    MOCLDY    64  57  78 SE10      29.97S
$$

WIZ056-057-062-063-064-067-068-071000-
SOUTH CENTRAL WISCONSIN

CITY           SKY/WX    TMP DP  RH WIND       PRES   REMARKS
REEDSBURG      PTCLDY    63  57  82 SE5       29.97S
BARABOO/DELLS  MOCLDY    60  55  81 SE3       29.98F HAZE
LONE ROCK      MOCLDY    63  57  81 E8        29.97S
MINERAL POINT  PTCLDY    63  55  77 SE8       29.98S
MADISON        CLEAR     60  55  83 S6        30.00S HAZE
MIDDLETON      CLEAR     56  55  96 CALM      30.00F
WATERTOWN      CLEAR     56  56 100 SE3       30.02S
MONROE         CLEAR     59  54  82 S7        30.00S
JANESVILLE     CLEAR     59  54  82 SE6       30.01S FOG
$$

WIZ051-052-058>065-066-070>072-071000-
SOUTHEAST WISCONSIN

CITY           SKY/WX    TMP DP  RH WIND       PRES   REMARKS
MILWAUKEE      PTCLDY    46  43  89 CALM      30.06S
WAUKESHA       PTCLDY    45  45 100 CALM      30.06S FOG
MILWAUKEE/TIMM PTCLDY    45  43  93 CALM      30.06S FOG
RACINE         PTCLDY    45  43  93 CALM      30.07S
BURLINGTON     PTCLDY    46  46 100 CALM      30.05R FOG
KENOSHA        PTCLDY    46  45  96 E3        30.05S FOG
FOND DU LAC    CLEAR     56  52  86 SE7       30.02F
SHEBOYGAN      PTCLDY    42  42 100 CALM      30.05S FOG
WEST BEND      FOG       45  45 100 CALM      30.05S VSB<1/4
JUNEAU         CLEAR     55  52  91 SE7       30.03F FOG
$$

LSZ147-162-071000-
LAKE SUPERIOR

STATION/POSITION TIME  TEMP    WIND        PRES    WAVE
                       AIR SEA DIR/SP/G            HT/PER
                 (UTC) (F)     (DEG/KT/KT) (MB)    (FT/S)
W MID LAKE BUOY  0850   44 35  130/ 10/ 12 1013.4F   1/ 4
DEVILS ISLAND    0900   58     140/  9/ 10 1012.2F
PORT WING        0800   41      70/  2/  3 1012.5F
SAXON HARBOR     0800   66     180/  5/  9 1012.2F
$$

LMZ867-665-643>646-071000-
LAKE MICHIGAN

STATION/POSITION TIME  TEMP    WIND        PRES    WAVE
                       AIR SEA DIR/SP/G            HT/PER
                 (UTC) (F)     (DEG/KT/KT) (MB)    (FT/S)
CHAMBERS ISLAND  0800   47      20/  2/  3 1017.9F
NORTHPORT PIER   0800   44     120/  2/  3 1017.9F
SISTER BAY       0817   50      CALM  /  4   N/A
KEWAUNEE LAKESHO 0800   47        CALM     1017.1F
SHEBOYGAN LAKESH 0900   44     110/  4/  5 1018.2F
PORT WASHINGTON  0800   47      CALM  /  2 1018.3F
ATWATER BUOY     0900   44      CALM  /  2 1019.2R
MILWAUKEE LAKESH 0900   46      30/  2/  3   N/A
KENOSHA   LAKESH 0900   45      CALM  /  2 1017.6S
$$

TC  - TEMPERATURE IN CELSIUS
VSB - VISIBILITY IN STATUTE MILES
WCI - WIND CHILL INDEX
HX  - HEAT INDEX




USA.gov is the U.S. government's official web portal to all federal, state and local government web resources and services.